[[{"header":{"parameterUnit":"m.s-1","parameterCategory":1,"la1":30.2991,"la2":30.254,"lo1":-89.0895,"lo2":-89.0444,"dy":0.0017,"dx":0.0017,"nx":28,"ny":28,"refTime":"2023-08-13T21:00:00:Z","depth":0,"parameterNumber":2,"parameterNumberName":"U-component_of_WINDS"},"data":[0,0,0,0,0,0,0,0,0,0,0,0,0,0,0,0,0,0,0,0,0,0,0,0,0,0,0,0,0,0,0,0,0,0,0,0,0,0,0,0,0,0,0,0,0,0,0,0,0,0,0,0,0,0,0,0,0,0,4.1596,4.1597,0,4.1714,4.1715,4.1716,4.1667,4.1664,4.1661,4.1659,4.1778,4.1784,4.1789,0,0,0,0,0,0,0,0,0,0,0,0,0,4.1323,4.1328,4.1595,4.1597,4.1598,4.1714,4.1715,4.1717,4.1667,4.1664,4.1661,4.1657,4.1776,4.1783,4.179,0,0,0,0,0,0,0,0,0,0,0,0,0,4.1441,4.133,4.1595,4.1588,4.1588,4.1713,4.1715,4.1717,4.1668,4.1664,4.166,4.1656,4.1774,4.1782,4.1791,4.193,0,0,4.1818,4.1821,0,0,0,0,0,0,0,0,4.1435,4.1451,4.1587,4.1588,4.1589,4.1671,4.1663,4.1788,4.1669,4.1638,4.1659,4.1654,4.1746,4.1757,4.1788,4.1935,4.194,4.1818,4.1824,4.1827,4.183,0,0,0,0,0,0,0,4.1427,4.1446,4.1642,4.1589,4.1591,4.1577,4.1589,4.1686,4.1714,4.164,4.1637,4.1652,4.1745,4.178,4.179,4.1942,4.1818,4.1826,4.1831,4.1835,4.2205,4.2209,0,0,0,0,0,0,4.1419,4.1439,4.1638,4.1646,4.15,4.1586,4.1599,4.1649,4.1713,4.1719,4.1655,4.1649,4.1767,4.178,4.1794,4.1958,4.1827,4.1835,4.184,4.22,4.2206,4.2211,0,0,0,0,0,0,4.1413,4.1437,4.1634,4.1542,4.1566,4.1595,4.1651,4.1654,4.1688,4.1724,4.1729,4.1685,4.1764,4.1782,4.1896,4.1961,4.1839,4.1847,4.2195,4.2202,4.2208,4.2287,0,0,0,0,0,0,4.1405,4.1435,4.1489,4.1543,4.1571,4.1734,4.1656,4.1659,4.1703,4.1696,4.1754,4.1759,4.1762,4.1883,4.1904,4.1971,4.1854,4.2189,4.2198,4.2206,4.2279,4.2296,4.2311,0,0,0,0,0,4.1396,4.1507,4.1492,4.1517,4.1639,4.1738,4.1754,4.1755,4.1709,4.1762,4.1785,4.1757,4.1951,4.1895,4.1919,4.1989,4.2185,4.2195,4.2205,4.2272,4.2293,4.231,0,0,0,0,0,0,4.146,4.1514,4.1498,4.1631,4.168,4.173,4.1797,4.1778,4.1841,4.1832,4.1831,4.1844,4.1961,4.1987,4.1923,4.2124,4.2061,4.2076,4.2103,4.2123,4.2139,4.2129,4.1861,0,0,0,0,0,4.149,4.1567,4.161,4.1723,4.1748,4.1769,4.1812,4.1809,4.186,4.188,4.1911,4.1961,4.2032,4.208,4.2148,4.2283,4.2293,4.2343,4.2359,4.2372,4.2384,4.2454,4.2475,4.2245,4.2245,4.2244,0,0,4.1552,4.1591,4.164,4.1736,4.1774,4.1851,4.1787,4.1872,4.1929,4.1893,4.2001,4.2026,4.2081,4.2204,4.2261,4.2229,4.245,4.2385,4.2395,4.2401,4.2466,4.2488,4.2508,4.2252,4.225,4.2249,0,0,4.1704,4.1743,4.1839,4.1878,4.1936,4.1948,4.1972,4.2024,4.2038,4.2147,4.212,4.2188,4.2312,4.2351,4.2388,4.2552,4.2527,4.2574,4.2656,4.2724,4.2742,4.2758,4.2812,4.2833,4.2587,4.2587,4.2588,0,4.1773,4.189,4.1891,4.1978,4.2019,4.1991,4.2086,4.2124,4.2201,4.223,4.2195,4.2348,4.2383,4.2514,4.2553,4.2585,4.2609,4.2566,4.2739,4.2755,4.277,4.2822,4.2843,4.2592,4.2592,4.2591,4.2591,0,4.197,4.2052,4.2122,4.2197,4.2247,4.2338,4.2351,4.2401,4.2394,4.2409,4.2518,4.256,4.2634,4.2665,4.2659,4.2794,4.2772,4.2739,4.2674,4.2797,4.2846,4.2866,4.26,4.2598,4.2596,4.2595,0,0,4.2166,4.2238,4.2264,4.2295,4.2356,4.2418,4.2507,4.258,4.2621,4.2675,4.2747,4.2852,4.282,4.2861,4.2859,4.2919,4.3041,4.2877,4.2878,4.2903,4.3188,4.321,4.3234,4.3027,4.303,4.3034,4.3182,0,4.2319,4.2475,4.2477,4.2619,4.2692,4.2665,4.2741,4.2786,4.2803,4.2866,4.2884,4.2957,4.2911,4.2935,4.2993,4.3014,4.3098,4.3004,4.3091,4.3094,4.3074,4.326,4.3285,4.3423,4.3201,4.3205,4.3207,0,4.2519,4.2578,4.2727,4.2774,4.2805,4.2874,4.2938,4.3001,4.3049,4.3057,4.3102,4.309,4.3178,4.3113,4.3232,4.3168,4.3204,4.3219,4.3224,4.323,4.3155,4.3267,4.3467,4.3487,4.3238,4.3235,4.3233,0,4.2641,4.2759,4.2862,4.2891,4.2949,4.2998,4.3024,4.3069,4.3111,4.3168,4.3195,4.3262,4.3297,4.3348,4.3353,4.3306,4.3472,4.3408,4.3478,4.3478,4.3512,4.3509,4.3718,4.3542,4.3541,4.3541,4.354,0,4.281,4.2902,4.2917,4.2981,4.3081,4.3082,4.3181,4.3204,4.3243,4.3309,4.3291,4.3352,4.3357,4.342,4.3425,4.3521,4.3538,4.3545,4.3544,4.3545,4.3543,4.3565,4.3554,4.3546,4.3545,4.3544,4.3543,0,4.2963,4.2978,4.3088,4.3134,4.3147,4.3219,4.3257,4.3317,4.3331,4.3414,4.3434,4.3456,4.3529,4.354,4.3626,4.3629,4.3742,4.3734,4.3726,4.3723,4.3791,4.3783,4.4018,4.4047,4.3856,4.3858,4.3859,0,4.3069,4.3138,4.3191,4.3233,4.3262,4.3331,4.3373,4.3377,4.3422,4.3481,4.3533,4.3603,4.366,4.3777,4.38,4.3865,4.3855,4.3933,4.3865,4.3861,4.3851,4.3846,4.3851,4.3945,4.3947,4.3949,4.3951,0,4.3252,4.3255,4.3318,4.3382,4.3433,4.3485,4.3532,4.3568,4.3577,4.3628,4.3702,4.3746,4.3833,4.3902,4.3965,4.3991,4.3971,4.3972,4.3991,4.399,4.398,4.3982,4.3757,4.3966,4.3965,4.3963,4.3963,4.3962,4.3382,4.3441,4.3486,4.3555,4.3591,4.3636,4.3693,4.3714,4.3776,4.3846,4.3844,4.3924,4.3969,4.4052,4.4082,4.4143,4.4117,4.4146,4.4153,4.4159,4.4163,4.3974,4.4155,4.4155,4.4154,4.4154,4.4154,0,4.3561,4.3589,4.3652,4.3719,4.3773,4.3751,4.3802,4.3848,4.3919,4.3962,4.4017,4.41,4.4167,4.4195,4.4259,4.4303,4.4295,4.4319,4.4314,4.432,4.4184,4.416,4.4324,4.4324,4.4324,4.4324,4.4324,4.4324,4.366,4.3757,4.3765,4.3879,4.3906,4.3984,4.4014,4.4054,4.4088,4.4181,4.4236,4.4254,4.4291,4.4357,4.4416,4.4423,4.4445,4.4473,4.4475,4.4347,4.433,4.4313,4.429,4.4479,4.4479,4.4604,4.4605,4.4606]},{"header":{"parameterUnit":"m.s-1","parameterCategory":1,"la1":30.2991,"la2":30.254,"lo1":-89.0895,"lo2":-89.0444,"dy":0.0017,"dx":0.0017,"nx":28,"ny":28,"refTime":"2023-08-13T21:00:00:Z","depth":0,"parameterNumber":3,"parameterNumberName":"V-component_of_WINDS"},"data":[0,0,0,0,0,0,0,0,0,0,0,0,0,0,0,0,0,0,0,0,0,0,0,0,0,0,0,0,0,0,0,0,0,0,0,0,0,0,0,0,0,0,0,0,0,0,0,0,0,0,0,0,0,0,0,0,0,0,2.0079,2.008,0,2.0148,2.0149,2.015,2.0136,2.0135,2.0134,2.0133,2.0202,2.0205,2.0207,0,0,0,0,0,0,0,0,0,0,0,0,0,1.9932,1.9935,2.0079,2.008,2.0081,2.0148,2.0149,2.015,2.0137,2.0135,2.0134,2.0132,2.0201,2.0204,2.0208,0,0,0,0,0,0,0,0,0,0,0,0,0,1.9998,1.9936,2.0079,2.0082,2.0083,2.0148,2.0149,2.015,2.0137,2.0135,2.0133,2.0131,2.0199,2.0204,2.0208,2.0273,0,0,2.0222,2.0224,0,0,0,0,0,0,0,0,1.9994,2.0003,2.0081,2.0082,2.0083,2.0132,2.0122,2.0191,2.0137,2.0116,2.0133,2.013,2.018,2.0186,2.0203,2.0277,2.028,2.0222,2.0225,2.0227,2.0228,0,0,0,0,0,0,0,1.999,2.0,2.0106,2.0082,2.0084,2.0079,2.0086,2.0135,2.0158,2.0118,2.0117,2.0126,2.018,2.0198,2.0204,2.0281,2.0222,2.0226,2.0229,2.0231,2.0409,2.0411,0,0,0,0,0,0,1.9984,1.9996,2.0104,2.0108,2.0033,2.0083,2.0091,2.0118,2.0157,2.0161,2.0127,2.0125,2.0192,2.0199,2.0207,2.0284,2.0227,2.0231,2.0234,2.0407,2.0409,2.0412,0,0,0,0,0,0,1.9981,1.9994,2.0101,2.0052,2.0066,2.0088,2.0118,2.012,2.0139,2.0164,2.0168,2.0142,2.0191,2.02,2.0257,2.0287,2.0233,2.0237,2.0405,2.0408,2.041,2.0441,0,0,0,0,0,0,1.9977,1.9993,2.0019,2.0053,2.0068,2.0151,2.012,2.0123,2.0147,2.0144,2.0179,2.0183,2.019,2.025,2.0261,2.0292,2.0241,2.0402,2.0406,2.041,2.0437,2.0445,2.0451,0,0,0,0,0,1.9972,2.0025,2.002,2.0033,2.0101,2.0153,2.0162,2.0169,2.0149,2.0175,2.0191,2.0182,2.0281,2.0256,2.0268,2.0301,2.04,2.0405,2.0409,2.0434,2.0443,2.0451,0,0,0,0,0,0,1.9994,2.0029,2.0025,2.0091,2.0119,2.0151,2.0183,2.0179,2.0213,2.0209,2.0216,2.0223,2.028,2.0296,2.0267,2.0365,2.0338,2.0345,2.0353,2.0361,2.0368,2.0363,2.0245,0,0,0,0,0,2.0006,2.0046,2.0075,2.013,2.0144,2.0161,2.0184,2.0187,2.0217,2.0228,2.0248,2.0276,2.0314,2.0338,2.0374,2.0439,2.0446,2.0467,2.0474,2.048,2.0486,2.052,2.0529,2.0427,2.0427,2.0426,0,0,2.0032,2.0057,2.0082,2.0135,2.0157,2.0197,2.0172,2.0215,2.0245,2.0235,2.0289,2.0304,2.0336,2.0396,2.0424,2.0411,2.0515,2.0485,2.049,2.0493,2.0525,2.0535,2.0544,2.043,2.0429,2.0429,0,0,2.01,2.0123,2.0171,2.0194,2.0228,2.0238,2.025,2.0282,2.0292,2.0347,2.0339,2.0373,2.0438,2.0461,2.048,2.0554,2.0547,2.0566,2.0601,2.0634,2.0642,2.0649,2.0675,2.0684,2.0572,2.0572,2.0572,0,2.0129,2.019,2.0196,2.0241,2.0263,2.0256,2.0303,2.0325,2.0369,2.0384,2.0369,2.0449,2.047,2.0534,2.0552,2.0569,2.0581,2.0562,2.0641,2.0648,2.0655,2.0679,2.0689,2.0574,2.0574,2.0574,2.0573,0,2.0222,2.0264,2.0298,2.0341,2.0367,2.0413,2.0425,2.0451,2.0451,2.0463,2.0517,2.0542,2.0582,2.0597,2.0598,2.0662,2.0652,2.0639,2.0612,2.0666,2.0689,2.0699,2.0577,2.0576,2.0576,2.0575,0,0,2.0307,2.0351,2.0364,2.0382,2.0418,2.045,2.0494,2.0534,2.0555,2.0585,2.0621,2.0675,2.0663,2.0685,2.0688,2.0717,2.0772,2.0699,2.07,2.0711,2.0842,2.0852,2.0863,2.0767,2.0769,2.077,2.0839,0,2.0378,2.0457,2.0463,2.0534,2.0572,2.0565,2.0603,2.0628,2.064,2.0673,2.0685,2.0723,2.0704,2.0717,2.0745,2.0759,2.0798,2.0755,2.08,2.0802,2.0792,2.0875,2.0886,2.0949,2.0848,2.085,2.0851,0,2.0472,2.0504,2.0579,2.0608,2.0624,2.0658,2.0694,2.0726,2.0754,2.076,2.0784,2.0782,2.0826,2.0797,2.0857,2.0827,2.0845,2.0855,2.0857,2.0862,2.083,2.0881,2.097,2.098,2.0865,2.0864,2.0863,0,2.0525,2.0587,2.064,2.0656,2.0691,2.0715,2.0731,2.0757,2.0779,2.081,2.0824,2.0859,2.0879,2.0905,2.0912,2.0891,2.0971,2.0943,2.0977,2.0976,2.0994,2.0993,2.1087,2.1007,2.1007,2.1006,2.1006,0,2.0604,2.0649,2.0664,2.0696,2.0746,2.0752,2.0802,2.0816,2.0838,2.0872,2.0867,2.0899,2.0906,2.0939,2.0944,2.0992,2.1001,2.1006,2.1007,2.1007,2.1006,2.1019,2.1014,2.1009,2.1008,2.1008,2.1007,0,2.0672,2.0684,2.074,2.0769,2.0777,2.0812,2.0836,2.0866,2.0876,2.0919,2.0929,2.0945,2.0983,2.0992,2.1037,2.1041,2.1097,2.1094,2.1088,2.1088,2.112,2.1117,2.1226,2.124,2.1151,2.1152,2.1152,0,2.0721,2.0756,2.0788,2.081,2.0827,2.0863,2.0886,2.0893,2.0916,2.0949,2.0975,2.1012,2.1042,2.1103,2.1118,2.1151,2.1149,2.1185,2.1154,2.1152,2.1148,2.1146,2.1149,2.1191,2.1191,2.1192,2.1193,0,2.0807,2.0811,2.0844,2.088,2.0907,2.0935,2.0961,2.098,2.0989,2.1016,2.1055,2.1078,2.1123,2.116,2.1194,2.1208,2.1202,2.1202,2.1212,2.1211,2.1206,2.1209,2.1103,2.12,2.1199,2.1199,2.1198,2.1198,2.0867,2.0897,2.0924,2.0961,2.0981,2.1006,2.1035,2.1049,2.1081,2.1119,2.112,2.1162,2.1187,2.1232,2.1248,2.128,2.1269,2.1282,2.1286,2.1289,2.1291,2.1201,2.1286,2.1286,2.1285,2.1285,2.1285,0,2.0952,2.0968,2.1002,2.1039,2.1068,2.106,2.1088,2.1112,2.1149,2.1173,2.1202,2.1246,2.128,2.1298,2.1332,2.1354,2.1351,2.1362,2.136,2.1364,2.13,2.1288,2.1363,2.1363,2.1363,2.1363,2.1363,2.1363,2.0999,2.1049,2.1056,2.1115,2.1131,2.1172,2.1189,2.1211,2.123,2.1279,2.1308,2.1318,2.1339,2.1374,2.1405,2.1409,2.1422,2.1434,2.1436,2.1376,2.1368,2.1361,2.135,2.1437,2.1437,2.1497,2.1498,2.1498]}]]